This is the latest recevied weather packets stored in our database for station/object HA2SKA-1. If no packets are shown the sender has not sent any weather packets the latest 10 day(s).
| Time | Temp. | Humidity | Pressure | Rain* | Wind** | Luminosity | Snow |
|---|---|---|---|---|---|---|---|
| 1778060746 | 24.44° C | 43% | 1013.2 hPa | - | - | - | - |
| 1778059846 | 24.44° C | 43% | 1013.2 hPa | - | - | - | - |
| 1778058946 | 23.89° C | 45% | 1013.2 hPa | - | - | - | - |
| 1778058046 | 23.89° C | 46% | 1013.3 hPa | - | - | - | - |
| 1778057146 | 23.89° C | 46% | 1013.2 hPa | - | - | - | - |
| 1778056245 | 23.33° C | 45% | 1013.3 hPa | - | - | - | - |
| 1778055345 | 23.33° C | 47% | 1013.2 hPa | - | - | - | - |
| 1778054445 | 22.22° C | 49% | 1013.1 hPa | - | - | - | - |
| 1778053545 | 22.22° C | 51% | 1013.2 hPa | - | - | - | - |
| 1778052645 | 21.67° C | 51% | 1013.3 hPa | - | - | - | - |
| 1778051745 | 21.11° C | 52% | 1013.3 hPa | - | - | - | - |
| 1778050845 | 21.11° C | 52% | 1013.4 hPa | - | - | - | - |
| 1778049945 | 21.11° C | 51% | 1013.4 hPa | - | - | - | - |
| 1778049045 | 20° C | 53% | 1013.4 hPa | - | - | - | - |
| 1778048145 | 20° C | 52% | 1013.3 hPa | - | - | - | - |
| 1778047245 | 21.11° C | 51% | 1013.3 hPa | - | - | - | - |
| 1778046344 | 20° C | 52% | 1013.4 hPa | - | - | - | - |
| 1778045444 | 20° C | 53% | 1013.2 hPa | - | - | - | - |
| 1778044544 | 19.44° C | 55% | 1013.3 hPa | - | - | - | - |
| 1778043644 | 21.67° C | 48% | 1013.1 hPa | - | - | - | - |
| 1778042744 | 17.78° C | 59% | 1013.1 hPa | - | - | - | - |
| 1778041844 | 16.11° C | 65% | 1013 hPa | - | - | - | - |
| 1778040944 | 15.56° C | 70% | 1012.8 hPa | - | - | - | - |
| 1778040044 | 14.44° C | 73% | 1012.7 hPa | - | - | - | - |
| 1778039144 | 14.44° C | 74% | 1012.7 hPa | - | - | - | - |
* Rain since midnight (hover to see other rain measurements)
** Current wind speed in m/s (hover to see current wind gust speed)